STARLINK-37074, 68073

Orbit data source: Space-Track

STARLINK-37074, 68073 is a payload satellite owned by SpaceX/Seattle (US) in LEO that was launched on Wed, 04 Mar 2026 UTC via an FALCON 9 launch vehicle from the Air Force Eastern Test Range (AFETR). Payload-class satellites include a variety of spacecraft equipped with specific instruments for various scientific and technological missions. These include communications satellites like Starlink; space stations such as the ISS; scientific satellites like the Hubble; Earth observation satellites from companies like Planet Labs, Umbra, and HawkEye 360; GPS; miniature CubeSats for education and research; and military/defense satellites.

Loading next visibility...
Identifier
68073, 2026-042E
Orbit
LEO
Country
Flag of USUS
Related business
Manufacturer
SpaceX/Seattle
Mission
Operational Commercial Communications
Bus & Motor
STARLINK V2MO, Unknown motor
Mass
575 kg wet, ~530 kg dry
Launch date (UTC)
2026-03-04 (4 months ago)
Launch vehicle
FALCON 9
Launch site
Air Force Eastern Test Range (AFETR)
Object type
Payload
Rocket body
Debris
Shape & HBR
Box + 2 Pan, 17.7 m
Radar Cross Section
36.964 m², Large (>1 m²)

Expand to show TLE details & history
Last TLE update: 21 hours ago

TLE from 21 hours ago
0 STARLINK-37074
1 68073U 26042E   26170.95618211  .00013183  00000-0  40049-3 0  9993
2 68073  53.1592  62.2103 0001259  90.5287 269.5860 15.34411068 17987
Epoch: 2026-06-19T22:56Z
TLE epoch observation values (Epoch: 2026-06-19T22:56:54.134Z)
Latitude
-0°
Longitude
169.80702°
Altitude
463.578 km
Speed
7.636 km/s
True Right ascension
04h 08m 50s
True Declination
0° 00' 00"
Sunlit
Object was in daylight at epoch
Visualization orbit readout
Latitude
Unknown
Longitude
Unknown
Altitude
Unknown
Speed
Unknown
Apparent Right ascension
Unknown
Apparent Declination
Unknown
Sunlit
N/A
Visualization observer readout
Local Sidereal Time
07:18:40
Azimuth
Unknown
Elevation
Unknown
Doppler factor
Unknown
Orbital elements
Apogee altitude
463.789 km
Perigee altitude
462.066 km
Semi-major axis
6,841.064 km
Eccentricity
0.00013
Inclination
53.1592°
RAAN
62.2103°
Arg. of periapsis
90.5287°
True anomaly
269.57157°
Mean anomaly
269.586°
Eccentric anomaly
269.57879°
Mean motion
3.83582 °/min
Orbital period
93.85 mins
BSTAR
0.00040049
Loading maneuver chart data...
Computing Atmospheric mass density...
Loading historical data...
Loading historical data...
Loading historical data...
Loading historical data...
Loading historical data...
Loading historical data...
Loading historical data...

Documentation

Showing up to 5 results
|